This is the latest recevied weather packets stored in our database for station/object KI4HRG. If no packets are shown the sender has not sent any weather packets the latest 10 day(s).
| Time | Temp. | Humidity | Pressure | Rain* | Wind** | Luminosity | Snow |
|---|---|---|---|---|---|---|---|
| 1787609710 | 32.78° C | 50% | 1014.4 hPa | 0 mm | - | 81 W/m² | - |
| 1787609404 | 33.33° C | 50% | 1014.4 hPa | 0 mm | - | 75 W/m² | - |
| 1787609104 | 33.33° C | 50% | 1014.3 hPa | 0 mm | - | 75 W/m² | - |
| 1787608799 | 33.33° C | 49% | 1014.3 hPa | 0 mm | - | 78 W/m² | - |
| 1787608498 | 33.89° C | 51% | 1014.4 hPa | 0 mm | - | 97 W/m² | - |
| 1787608194 | 33.89° C | 49% | 1014.2 hPa | 0 mm | - | 92 W/m² | - |
| 1787607891 | 33.89° C | 48% | 1014.3 hPa | 0 mm | - | 304 W/m² | - |
| 1787607587 | 33.89° C | 49% | 1014.2 hPa | 0 mm | - | 209 W/m² | - |
| 1787607284 | 33.89° C | 49% | 1014.3 hPa | 0 mm | - | 315 W/m² | - |
| 1787606980 | 33.89° C | 48% | 1014.3 hPa | 0 mm | - | 361 W/m² | - |
| 1787606678 | 33.89° C | 49% | 1014.3 hPa | 0 mm | - | 338 W/m² | - |
| 1787606373 | 33.89° C | 49% | 1014.3 hPa | 0 mm | - | 390 W/m² | - |
| 1787606067 | 34.44° C | 48% | 1014.1 hPa | 0 mm | - | 399 W/m² | - |
| 1787605766 | 33.89° C | 49% | 1014.4 hPa | 0 mm | - | 421 W/m² | - |
| 1787605462 | 34.44° C | 48% | 1014.4 hPa | 0 mm | - | 377 W/m² | - |
| 1787605157 | 35° C | 49% | 1014.3 hPa | 0 mm | - | 420 W/m² | - |
| 1787604857 | 34.44° C | 49% | 1014.6 hPa | 0 mm | - | 448 W/m² | - |
| 1787604552 | 34.44° C | 50% | 1014.3 hPa | 0 mm | - | 496 W/m² | - |
| 1787604251 | 34.44° C | 50% | 1014.4 hPa | 0 mm | - | 531 W/m² | - |
| 1787603947 | 34.44° C | 49% | 1014.4 hPa | 0 mm | - | 579 W/m² | - |
| 1787603641 | 34.44° C | 49% | 1014.3 hPa | 0 mm | - | 656 W/m² | - |
| 1787603337 | 34.44° C | 49% | 1014.7 hPa | 0 mm | - | 630 W/m² | - |
| 1787603033 | 33.33° C | 51% | 1014.7 hPa | 0 mm | - | 391 W/m² | - |
| 1787602729 | 33.33° C | 51% | 1014.8 hPa | 0 mm | - | 491 W/m² | - |
| 1787602428 | 33.33° C | 52% | 1014.8 hPa | 0 mm | - | 153 W/m² | - |
* Rain latest hour (hover to see other rain measurements)
** Current wind speed in m/s (hover to see current wind gust speed)